Location: Cahas Mountain Overlook
(37.0833°N, 80.1000°W)
Time: 18:28:49
(UTC-05:00)

X-37B - Pass Details

Date: 26 November 2022
Orbit: 277 x 277 km, 45.0° (Epoch: 01 November)

Event Time Altitude Azimuth Distance (km) Brightness Sun altitude
Exits shadow 05:26:42 21° 149° (SSE) 700 2.3 -20.4°
Drops below altitude 10° 05:27:43 10° 139° (SE) 1,090 3.6 -20.2°
Sets 05:29:39 0° 132° (SE) 1,898 5.1 -19.8°
